Location: Unspecified
(40.7945°N, 0.0000°E)
Time: 20:51:17
(UTC+00:00)

Explorer 7 - Pass Details

Date: 25 June 2021
Orbit: 484 x 676 km, 50.3° (Epoch: 28 July)

Event Time Altitude Azimuth Distance (km) Brightness Sun altitude
Rises 20:57:52 0° 281° (WNW) 3,023 11.5 -12.8°
Reaches altitude 10° 21:00:33 10° 294° (WNW) 2,112 10.9 -13.1°
Maximum altitude 21:04:44 27° 352° (N) 1,273 9.3 -13.7°
Drops below altitude 10° 21:08:52 10° 51° (NE) 2,080 9.7 -14.2°
Sets 21:11:29 0° 64° (ENE) 2,970 10.4 -14.5°
